User: anonymous   Login
Location: Unspecified
(0.0000°N, 0.0000°E)
Time: 19:20:28
(UTC+00:00)
Language:

GALILEO 8 (264) - Orbit

View from above orbital plane
View from above orbital plane
View from above satellite
View from above satellite

Ground track
Ground track

The orbit data is extracted from the following two-line orbital elements,

1 40545U 15017B   18140.06167096 -.00000058  00000-0  00000+0 0  9994
2 40545  55.8831  62.5550 0000681 311.1372  48.8516  1.70475074 19575
Epoch (UTC): 20 May 2018 01:28:48
Eccentricity: 0.0000681
inclination: 55.8831°
perigee height: 23220 km
apogee height: 23224 km
right ascension of ascending node: 62.5550°
argument of perigee: 311.1372°
revolutions per day: 1.70475074
mean anomaly at epoch: 48.8516°
orbit number at epoch: 1957

The dashed part of the orbit path shows where the satellite is in the earth's shadow,  

DLR